Location: Caltech
(34.1382°N, 118.1253°W)
Time: 07:16:34
(UTC-07:00)

NOAA 19 - Visible Passes

Search period start: 27 May 2016 00:00
Search period end: 06 June 2016 00:00
Orbit: 843 x 861 km, 99.0° (Epoch: 26 May)

Date Brightness Start Highest point End Pass type
(mag) Time Alt. Az. Time Alt. Az. Time Alt. Az.
27 May 6.4 03:08:53 10° NNE 03:13:58 36° E 03:16:40 23° SSE visible
27 May 6.4 04:49:55 10° NNW 04:54:25 26° WNW 04:58:42 11° WSW visible
28 May 6.8 02:57:49 10° NE 03:02:32 28° E 03:05:10 19° SE visible
28 May 6.1 04:38:16 10° N 04:43:09 33° WNW 04:47:12 14° SW visible
29 May 7.1 02:46:53 10° NE 02:51:05 22° E 02:53:41 16° SE visible
29 May 5.8 04:26:41 10° N 04:31:52 41° WNW 04:35:43 17° SW visible
30 May 7.4 02:36:09 10° NE 02:39:37 17° E 02:42:11 13° SE visible
30 May 5.5 04:15:10 10° N 04:20:33 53° WNW 04:24:13 20° SW visible
31 May 7.6 02:25:49 10° ENE 02:28:07 13° E 02:30:25 10° ESE visible
31 May 5.2 04:03:42 10° N 04:09:14 68° WNW 04:12:44 23° SSW visible
01 Jun 5.2 03:52:18 10° NNE 03:57:53 87° WNW 04:01:14 25° SSW visible
02 Jun 5.3 03:40:57 10° NNE 03:46:31 74° ESE 03:49:44 26° S visible
03 Jun 5.7 03:29:40 10° NNE 03:35:08 57° E 03:38:14 25° S visible
03 Jun 6.9 05:11:52 10° NNW 05:15:17 17° WNW 05:18:41 10° WSW visible
04 Jun 6.1 03:18:27 10° NNE 03:23:44 44° E 03:26:43 24° SSE visible
04 Jun 6.7 04:59:58 10° NNW 05:04:03 21° WNW 05:08:06 10° WSW visible
05 Jun 6.5 03:07:18 10° NNE 03:12:18 34° E 03:15:13 21° SSE visible
05 Jun 6.4 04:48:14 10° NNW 04:52:48 27° WNW 04:57:15 10° WSW visible
